TimeHST,TemperatureF,Dew PointF,Humidity,Sea Level PressureIn,VisibilityMPH,Wind Direction,Wind SpeedMPH,Gust SpeedMPH,PrecipitationIn,Events,Conditions,WindDirDegrees,DateUTC
12:53 AM,64.9,60.1,84,30.09,3.0,SW,6.9,-,N/A,,Haze,230,2013-01-01 10:53:00
1:53 AM,64.9,60.1,84,30.07,5.0,SW,8.1,-,N/A,,Haze,230,2013-01-01 11:53:00
2:53 AM,64.0,59.0,84,30.06,10.0,West,5.8,-,N/A,,Clear,280,2013-01-01 12:53:00
3:53 AM,64.0,59.0,84,30.06,10.0,WSW,5.8,-,N/A,,Scattered Clouds,240,2013-01-01 13:53:00
4:53 AM,64.0,57.0,78,30.06,10.0,SW,8.1,-,N/A,,Clear,220,2013-01-01 14:53:00
5:53 AM,64.0,55.9,75,30.07,10.0,SW,4.6,-,N/A,,Clear,220,2013-01-01 15:53:00
6:53 AM,64.0,57.0,78,30.09,10.0,SW,4.6,-,N/A,,Mostly Cloudy,230,2013-01-01 16:53:00
7:53 AM,66.9,59.0,76,30.10,10.0,SW,4.6,-,N/A,,Partly Cloudy,220,2013-01-01 17:53:00
8:53 AM,73.0,62.1,68,30.12,10.0,SW,4.6,-,N/A,,Mostly Cloudy,220,2013-01-01 18:53:00
9:53 AM,75.9,64.9,69,30.12,10.0,SSE,5.8,-,N/A,,Mostly Cloudy,160,2013-01-01 19:53:00
10:53 AM,78.1,66.0,66,30.10,10.0,NE,8.1,-,N/A,,Mostly Cloudy,40,2013-01-01 20:53:00
11:53 AM,78.1,66.0,66,30.07,10.0,NNE,6.9,-,N/A,,Mostly Cloudy,20,2013-01-01 21:53:00
12:53 PM,77.0,66.0,69,30.04,10.0,North,5.8,-,N/A,,Mostly Cloudy,10,2013-01-01 22:53:00
1:51 PM,77.0,66.2,69,30.02,10.0,ESE,5.8,-,N/A,,Mostly Cloudy,110,2013-01-01 23:51:00
1:53 PM,78.1,66.9,68,30.01,10.0,Variable,4.6,-,N/A,,Mostly Cloudy,0,2013-01-01 23:53:00
2:53 PM,77.0,66.0,69,30.00,10.0,NE,10.4,-,N/A,,Mostly Cloudy,50,2013-01-02 00:53:00
3:53 PM,75.9,64.9,69,30.01,10.0,NE,8.1,-,N/A,,Mostly Cloudy,40,2013-01-02 01:53:00
4:03 PM,75.9,64.9,69,30.01,10.0,Variable,6.9,-,N/A,,Mostly Cloudy,0,2013-01-02 02:03:00
4:45 PM,75.0,64.9,71,30.02,10.0,ENE,5.8,-,N/A,,Scattered Clouds,60,2013-01-02 02:45:00
4:53 PM,75.0,64.9,71,30.02,10.0,ENE,6.9,-,N/A,,Partly Cloudy,60,2013-01-02 02:53:00
5:53 PM,73.0,64.9,76,30.04,10.0,Calm,Calm,-,N/A,,Partly Cloudy,0,2013-01-02 03:53:00
6:08 PM,73.0,64.9,76,30.04,10.0,NNE,3.5,-,N/A,,Mostly Cloudy,20,2013-01-02 04:08:00
6:44 PM,72.0,64.9,78,30.06,10.0,NNE,3.5,-,N/A,,Scattered Clouds,30,2013-01-02 04:44:00
6:53 PM,72.0,64.0,76,30.05,8.0,NNE,3.5,-,N/A,,Partly Cloudy,30,2013-01-02 04:53:00
7:53 PM,69.1,64.9,87,30.07,10.0,Calm,Calm,-,N/A,,Clear,0,2013-01-02 05:53:00
8:53 PM,66.9,64.0,90,30.09,10.0,WSW,5.8,-,N/A,,Clear,240,2013-01-02 06:53:00
9:53 PM,66.9,62.1,84,30.09,10.0,SW,4.6,-,N/A,,Clear,230,2013-01-02 07:53:00
10:53 PM,64.9,60.1,84,30.09,10.0,SW,4.6,-,N/A,,Clear,230,2013-01-02 08:53:00
11:53 PM,64.0,59.0,84,30.08,10.0,SW,5.8,-,N/A,,Clear,230,2013-01-02 09:53:00